QPF
0.00 0.00 0.00 0.00 0.00 0.00 0.00 0.00 0.00 0.00 0.00 0.00 0.00 0.00 0.00 0.00 0.00 0.00 0.00 0.00 0.00 0.00 0.00 0.00 0.00 0.00 0.00 0.00 0.00 0.00 0.00 0.00 0.00 0.00 0.00 0.00 0.00 0.00 0.00 0.00 0.00 0.00 0.00
0.00 0.00 0.00 0.00 0.00 0.00 0.00 0.00 0.00 0.00 0.00 0.00 0.00 0.00 0.00 0.00 0.00 0.00 0.00 0.00 0.00 0.00 0.00 0.00 0.00 0.00 0.00 0.00 0.00 0.00 0.00 0.00 0.00 0.00 0.00 0.00 0.00 0.00 0.00 0.00 0.00 0.00 0.00
0.00 0.00 0.00 0.00 0.00 0.00 0.00 0.00 0.00 0.00 0.00 0.00 0.00 0.00 0.00 0.00 0.00 0.00 0.00 0.00 0.00 0.00 0.00 0.00 0.00 0.00 0.00 0.00 0.00 0.00 0.00 0.00 0.00 0.00 0.00 0.00 0.00 0.00 0.00 0.00 0.00 0.00 0.00
0.00 0.00 0.00 0.00 0.00 0.00 0.00 0.00 0.00 0.00 0.00 0.00 0.00 0.00 0.00 0.00 0.00 0.00 0.00 0.00 0.00 0.00 0.00 0.00 0.00 0.00 0.00 0.00 0.00 0.00 0.00 0.00 0.00 0.00 0.00 0.00 0.00 0.00 0.00 0.00 0.00 0.00 0.00
0.00 0.00 0.00 0.00 0.00 0.00 0.00 0.00 0.00 0.00 0.00 0.00 0.00 0.00 0.00 0.00 0.00 0.00 0.00 0.00 0.00 0.00 0.00 0.00 0.00 0.00 0.00 0.00 0.00 0.00 0.00 0.00 0.00 0.00 0.00 0.00 0.00 0.00 0.00 0.00 0.00 0.00 0.00
0.00 0.00 0.00 0.00 0.00 0.00 0.00 0.00 0.00 0.00 0.00 0.00 0.00 0.00 0.00 0.00 0.00 0.00 0.00 0.00 0.00 0.00 0.00 0.00 0.00 0.00 0.00 0.00 0.00 0.00 0.00 0.00 0.00 0.00 0.00 0.00 0.00 0.00 0.00 0.00 0.00 0.00 0.00
0.00 0.00 0.00 0.00 0.00 0.00 0.00 0.00 0.00 0.00 0.00 0.00 0.00 0.00 0.00 0.00 0.00 0.00 0.00 0.00 0.00 0.00 0.00 0.00 0.00 0.00 0.00 0.00 0.00 0.01 0.01 0.01 0.01 0.00 0.00 0.00 0.00 0.00 0.00 0.00 0.00 0.00 0.00
0.00 0.00 0.00 0.00 0.00 0.00 0.00 0.00 0.00 0.00 0.00 0.00 0.00 0.00 0.00 0.00 0.00 0.00 0.00 0.00 0.00 0.00 0.00 0.00 0.00 0.00 0.00 0.00 0.00 0.01 0.02 0.03 0.04 0.03 0.02 0.02 0.01 0.01 0.02 0.01 0.01 0.00 0.00
0.00 0.00 0.00 0.00 0.00 0.00 0.00 0.00 0.00 0.00 0.00 0.00 0.00 0.00 0.00 0.00 0.00 0.00 0.00 0.00 0.00 0.00 0.00 0.00 0.00 0.00 0.00 0.00 0.00 0.01 0.02 0.04 0.07 0.07 0.08 0.08 0.07 0.08 0.06 0.05 0.04 0.03 0.01
0.00 0.00 0.00 0.00 0.00 0.00 0.00 0.00 0.00 0.00 0.00 0.00 0.00 0.00 0.00 0.00 0.00 0.00 0.00 0.00 0.00 0.00 0.00 0.00 0.00 0.00 0.00 0.00 0.00 0.00 0.00 0.01 0.04 0.06 0.08 0.09 0.11 0.13 0.13 0.10 0.06 0.06 0.05
0.00 0.00 0.00 0.00 0.00 0.00 0.00 0.00 0.00 0.00 0.00 0.00 0.00 0.00 0.00 0.00 0.00 0.00 0.00 0.00 0.00 0.00 0.00 0.00 0.00 0.00 0.00 0.00 0.00 0.00 0.00 0.00 0.01 0.03 0.05 0.07 0.09 0.10 0.09 0.09 0.08 0.06 0.07
0.00 0.00 0.00 0.00 0.00 0.00 0.00 0.00 0.00 0.00 0.00 0.00 0.00 0.00 0.00 0.00 0.00 0.00 0.00 0.00 0.00 0.00 0.00 0.00 0.00 0.00 0.00 0.00 0.00 0.00 0.00 0.00 0.00 0.00 0.01 0.01 0.03 0.04 0.07 0.09 0.08 0.08 0.06
0.00 0.00 0.00 0.00 0.00 0.00 0.00 0.00 0.00 0.00 0.00 0.00 0.00 0.00 0.00 0.00 0.00 0.00 0.00 0.00 0.00 0.00 0.00 0.00 0.00 0.00 0.00 0.00 0.00 0.00 0.00 0.00 0.00 0.00 0.00 0.00 0.00 0.00 0.01 0.03 0.07 0.09 0.10
0.00 0.00 0.00 0.00 0.00 0.00 0.00 0.00 0.00 0.00 0.00 0.00 0.00 0.00 0.00 0.00 0.00 0.00 0.00 0.00 0.00 0.00 0.00 0.00 0.00 0.00 0.00 0.00 0.00 0.00 0.00 0.00 0.00 0.00 0.00 0.00 0.00 0.00 0.00 0.01 0.05 0.10 0.11
0.00 0.00 0.00 0.00 0.00 0.00 0.00 0.00 0.00 0.00 0.00 0.00 0.00 0.00 0.00 0.00 0.00 0.00 0.00 0.00 0.00 0.00 0.00 0.00 0.00 0.00 0.00 0.00 0.00 0.00 0.00 0.00 0.00 0.00 0.00 0.00 0.00 0.00 0.00 0.01 0.01 0.06 0.09
0.00 0.00 0.00 0.00 0.00 0.00 0.00 0.00 0.00 0.00 0.00 0.00 0.00 0.00 0.00 0.00 0.00 0.00 0.00 0.00 0.00 0.00 0.00 0.00 0.00 0.00 0.00 0.00 0.00 0.00 0.00 0.00 0.00 0.00 0.00 0.00 0.00 0.00 0.00 0.00 0.01 0.01 0.05
0.00 0.00 0.00 0.00 0.00 0.00 0.00 0.00 0.00 0.00 0.00 0.00 0.00 0.00 0.00 0.00 0.00 0.00 0.00 0.00 0.00 0.00 0.00 0.00 0.00 0.00 0.00 0.00 0.00 0.00 0.00 0.00 0.00 0.00 0.00 0.00 0.00 0.00 0.00 0.00 0.00 0.00 0.01
0.00 0.00 0.00 0.00 0.00 0.00 0.00 0.00 0.00 0.00 0.00 0.00 0.00 0.00 0.00 0.00 0.00 0.00 0.00 0.00 0.00 0.00 0.00 0.00 0.00 0.00 0.00 0.00 0.00 0.00 0.00 0.00 0.00 0.00 0.00 0.00 0.00 0.00 0.00 0.00 0.00 0.00 0.00
0.00 0.00 0.00 0.00 0.00 0.00 0.00 0.00 0.00 0.00 0.00 0.00 0.00 0.00 0.00 0.00 0.00 0.00 0.00 0.00 0.00 0.00 0.00 0.00 0.00 0.00 0.00 0.00 0.00 0.00 0.00 0.00 0.00 0.00 0.00 0.00 0.00 0.00 0.00 0.00 0.00 0.00 0.00
0.00 0.00 0.00 0.00 0.00 0.00 0.00 0.00 0.00 0.00 0.00 0.00 0.00 0.00 0.00 0.00 0.00 0.00 0.00 0.00 0.00 0.00 0.00 0.00 0.00 0.00 0.00 0.00 0.00 0.00 0.00 0.00 0.00 0.00 0.00 0.00 0.00 0.00 0.00 0.00 0.00 0.00 0.00
0.00 0.00 0.00 0.00 0.00 0.00 0.00 0.00 0.00 0.00 0.00 0.00 0.00 0.00 0.00 0.00 0.00 0.00 0.00 0.00 0.00 0.00 0.00 0.00 0.00 0.00 0.00 0.00 0.00 0.00 0.00 0.00 0.00 0.00 0.00 0.00 0.00 0.00 0.00 0.00 0.00 0.00 0.00
0.00 0.00 0.00 0.00 0.00 0.00 0.00 0.00 0.00 0.00 0.00 0.00 0.00 0.00 0.00 0.00 0.00 0.00 0.00 0.00 0.00 0.00 0.00 0.00 0.00 0.00 0.00 0.00 0.00 0.00 0.00 0.00 0.00 0.00 0.00 0.00 0.00 0.00 0.00 0.00 0.00 0.00 0.00
0.00 0.00 0.00 0.00 0.00 0.00 0.00 0.00 0.00 0.00 0.00 0.00 0.00 0.00 0.00 0.00 0.00 0.00 0.00 0.00 0.00 0.00 0.00 0.00 0.00 0.00 0.00 0.00 0.00 0.00 0.00 0.00 0.00 0.00 0.00 0.00 0.00 0.00 0.00 0.00 0.00 0.00 0.00
0.00 0.00 0.00 0.00 0.00 0.00 0.00 0.00 0.00 0.00 0.00 0.00 0.00 0.00 0.00 0.00 0.00 0.00 0.00 0.00 0.00 0.00 0.00 0.00 0.00 0.00 0.00 0.00 0.00 0.00 0.00 0.00 0.00 0.00 0.00 0.00 0.00 0.00 0.00 0.00 0.00 0.00 0.00
0.00 0.00 0.00 0.00 0.00 0.00 0.00 0.00 0.00 0.00 0.00 0.00 0.00 0.00 0.00 0.00 0.00 0.00 0.00 0.00 0.00 0.00 0.00 0.00 0.00 0.00 0.00 0.00 0.00 0.00 0.00 0.00 0.00 0.00 0.00 0.00 0.00 0.00 0.00 0.00 0.00 0.00 0.00
0.00 0.00 0.00 0.00 0.00 0.00 0.00 0.00 0.00 0.00 0.00 0.00 0.00 0.00 0.00 0.00 0.00 0.00 0.00 0.00 0.00 0.00 0.00 0.00 0.00 0.00 0.00 0.00 0.00 0.00 0.00 0.00 0.00 0.00 0.00 0.00 0.00 0.00 0.00 0.00 0.00 0.00 0.00
MSLP
1009.95 1009.59 1009.48 1009.36 1009.09 1008.82 1008.55 1008.32 1008.05 1008.02 1008.08 1008.53 1008.97 1009.34 1009.46 1009.59 1009.66 1009.75 1009.72 1009.86 1010.03 1010.11 1010.41 1010.57 1010.68 1010.77 1010.86 1010.71 1010.76 1010.97 1011.19 1011.00 1011.02 1011.32 1010.81 1010.51 1009.97 1009.53 1009.09 1008.99 1008.70 1008.40 1008.19
1010.30 1010.39 1010.25 1010.11 1009.83 1009.58 1009.18 1008.81 1008.54 1008.19 1007.94 1008.29 1008.17 1008.47 1008.89 1009.06 1009.15 1009.22 1009.29 1009.21 1009.29 1009.33 1009.53 1009.58 1009.61 1009.72 1009.96 1010.07 1009.99 1010.13 1010.16 1010.06 1010.37 1010.54 1010.75 1010.09 1009.06 1008.09 1007.78 1007.82 1007.76 1007.54 1007.41
1011.23 1011.29 1011.17 1010.91 1010.47 1010.01 1009.64 1009.32 1009.07 1008.63 1008.32 1008.13 1008.32 1008.58 1008.82 1009.09 1009.17 1009.23 1009.07 1008.88 1008.69 1008.64 1008.74 1008.78 1008.85 1009.01 1009.23 1009.13 1009.20 1009.41 1009.63 1009.52 1009.65 1009.68 1009.75 1009.29 1008.50 1008.14 1007.08 1006.73 1006.61 1006.56 1006.37
1011.51 1011.54 1011.50 1011.30 1011.07 1010.85 1010.26 1009.89 1009.54 1009.22 1008.90 1008.75 1008.93 1009.21 1009.48 1009.62 1009.30 1009.11 1008.75 1008.53 1008.34 1008.09 1007.94 1007.93 1008.01 1008.10 1008.24 1008.28 1008.22 1008.34 1008.38 1008.56 1008.27 1008.58 1008.31 1007.90 1007.60 1007.66 1007.06 1006.26 1006.12 1006.19 1005.64
1011.71 1011.89 1011.96 1011.86 1011.65 1011.18 1010.83 1010.53 1010.07 1009.72 1009.49 1009.31 1009.42 1009.68 1009.88 1009.89 1009.54 1009.29 1009.09 1008.72 1008.30 1007.99 1007.75 1007.56 1007.36 1007.19 1007.27 1007.22 1007.27 1007.29 1007.26 1007.21 1007.15 1006.99 1006.92 1006.95 1006.84 1006.70 1006.50 1005.75 1004.95 1005.36 1004.87
1011.86 1012.13 1012.20 1012.18 1012.06 1011.71 1011.42 1011.15 1010.86 1010.70 1010.34 1010.14 1010.09 1010.19 1010.15 1010.05 1009.85 1009.65 1009.41 1009.07 1008.51 1008.00 1007.67 1007.40 1007.10 1006.79 1006.51 1006.36 1006.19 1006.16 1006.13 1005.91 1005.89 1006.02 1005.80 1005.73 1005.37 1005.13 1005.46 1004.96 1004.33 1003.86 1003.54
1012.03 1012.30 1012.52 1012.57 1012.49 1012.39 1012.05 1011.70 1011.43 1011.29 1011.12 1010.97 1010.85 1010.76 1010.73 1010.54 1010.37 1010.15 1009.87 1009.50 1009.07 1008.58 1008.03 1007.57 1007.13 1006.73 1006.37 1006.07 1005.75 1005.43 1005.17 1004.99 1004.85 1004.68 1004.70 1004.53 1004.10 1003.98 1003.73 1003.50 1002.79 1002.45 1002.22
1012.12 1012.34 1012.51 1012.67 1012.75 1012.72 1012.51 1012.18 1011.88 1011.67 1011.47 1011.35 1011.24 1011.00 1010.80 1010.69 1010.55 1010.37 1010.13 1009.84 1009.47 1008.93 1008.32 1007.84 1007.28 1006.74 1006.28 1005.80 1005.37 1004.95 1004.61 1004.16 1003.81 1003.48 1003.21 1003.09 1002.97 1002.81 1002.82 1002.36 1002.30 1001.48 1001.13
1011.99 1012.25 1012.45 1012.65 1012.72 1012.68 1012.54 1012.38 1012.11 1011.97 1011.85 1011.82 1011.59 1011.40 1011.15 1010.99 1010.88 1010.54 1010.23 1010.00 1009.57 1009.05 1008.54 1008.03 1007.51 1006.92 1006.33 1005.72 1005.20 1004.72 1004.17 1003.50 1002.90 1002.57 1002.42 1002.13 1001.75 1001.50 1001.32 1001.18 1001.06 1000.68 999.90
1011.75 1012.09 1012.31 1012.36 1012.38 1012.35 1012.40 1012.51 1012.57 1012.63 1012.55 1012.34 1012.10 1011.89 1011.67 1011.43 1011.19 1010.89 1010.66 1010.30 1009.86 1009.37 1008.82 1008.23 1007.67 1007.04 1006.38 1005.73 1005.13 1004.51 1003.85 1003.25 1002.72 1002.14 1001.76 1001.42 1001.22 1000.80 1000.25 999.92 999.60 999.42 999.21
1011.74 1011.97 1012.19 1012.27 1012.42 1012.36 1012.76 1012.88 1012.87 1012.90 1012.88 1012.72 1012.48 1012.30 1012.06 1011.77 1011.52 1011.31 1010.99 1010.61 1010.12 1009.58 1009.03 1008.43 1007.80 1007.19 1006.55 1005.86 1005.24 1004.46 1003.70 1003.16 1002.45 1001.91 1001.52 1001.01 1000.57 1000.05 999.64 999.23 998.78 998.51 998.21
1011.56 1011.87 1012.12 1012.43 1012.68 1012.97 1013.08 1013.13 1013.15 1013.13 1013.24 1013.05 1012.89 1012.70 1012.38 1012.10 1011.86 1011.53 1011.13 1010.67 1010.16 1009.61 1009.07 1008.45 1007.84 1007.21 1006.53 1005.90 1005.22 1004.51 1003.79 1003.30 1002.76 1002.18 1001.56 1000.94 1000.40 999.83 999.41 998.80 998.03 997.39 997.07
1011.57 1012.10 1012.59 1013.03 1013.38 1013.54 1013.59 1013.59 1013.66 1013.73 1013.61 1013.35 1013.23 1012.95 1012.70 1012.39 1012.13 1011.73 1011.23 1010.77 1010.26 1009.75 1009.19 1008.57 1007.94 1007.22 1006.50 1005.72 1005.04 1004.38 1003.98 1003.39 1002.68 1002.05 1001.52 1000.85 1000.19 999.58 998.87 998.24 997.58 996.81 996.14
1011.88 1012.65 1013.24 1013.60 1013.90 1014.04 1014.01 1013.98 1014.01 1013.94 1013.86 1013.73 1013.54 1013.27 1013.01 1012.70 1012.31 1011.83 1011.34 1010.82 1010.29 1009.65 1009.03 1008.49 1007.85 1007.16 1006.39 1005.73 1004.91 1004.36 1003.57 1002.98 1002.43 1001.98 1001.42 1000.71 1000.03 999.38 998.67 997.91 997.23 996.45 995.66
1012.48 1013.11 1013.71 1014.20 1014.36 1014.39 1014.42 1014.44 1014.45 1014.33 1014.11 1013.98 1013.82 1013.60 1013.38 1013.04 1012.67 1012.27 1011.78 1011.23 1010.60 1009.97 1009.22 1008.49 1007.76 1007.05 1006.17 1005.25 1004.92 1004.27 1003.59 1002.85 1002.10 1001.76 1001.27 1000.52 999.86 999.31 998.42 997.50 996.49 995.97 995.27
1012.98 1013.58 1014.09 1014.44 1014.64 1014.78 1014.96 1015.04 1015.04 1014.83 1014.50 1014.29 1014.14 1014.03 1013.73 1013.43 1013.10 1012.62 1012.04 1011.42 1010.83 1010.10 1009.40 1008.61 1007.92 1007.11 1006.05 1005.30 1004.55 1003.99 1003.68 1003.18 1002.53 1001.53 1000.81 1000.12 999.41 998.66 997.78 996.90 996.08 995.41 994.51
1013.63 1014.13 1014.47 1014.71 1014.98 1015.19 1015.20 1015.29 1015.17 1015.05 1014.87 1014.69 1014.56 1014.35 1014.04 1013.75 1013.41 1012.96 1012.43 1011.80 1011.13 1010.46 1009.53 1008.71 1008.03 1007.41 1006.11 1005.07 1004.51 1003.79 1003.13 1002.81 1002.23 1001.57 1000.77 999.60 998.77 998.26 997.26 996.38 995.55 994.72 993.95
1014.01 1014.52 1014.94 1015.16 1015.22 1015.23 1015.23 1015.19 1014.95 1014.97 1015.02 1014.95 1014.88 1014.66 1014.45 1014.06 1013.56 1013.08 1012.59 1011.88 1011.22 1010.53 1009.65 1008.76 1007.80 1007.24 1006.17 1005.05 1004.35 1003.84 1003.08 1002.73 1002.07 1001.21 1000.43 999.66 998.75 998.08 997.40 996.27 994.90 994.01 993.19
1014.16 1014.55 1014.76 1015.14 1015.55 1015.47 1015.29 1014.97 1015.09 1015.32 1015.31 1015.26 1015.11 1014.90 1014.69 1014.16 1013.63 1013.08 1012.49 1011.90 1011.30 1010.35 1009.56 1008.58 1007.76 1007.04 1005.95 1005.12 1004.74 1003.94 1003.11 1002.50 1001.75 1000.85 1000.14 999.80 998.66 997.56 996.94 996.10 994.75 993.33 992.09
1014.43 1014.85 1015.00 1015.26 1015.37 1015.34 1015.23 1015.44 1015.77 1015.87 1015.92 1015.70 1015.38 1015.11 1014.70 1014.39 1013.72 1013.15 1012.42 1011.85 1011.32 1010.36 1009.19 1008.60 1007.79 1006.71 1005.83 1005.32 1004.84 1004.17 1003.21 1002.24 1001.34 1000.54 999.87 999.19 998.31 997.15 996.19 995.45 994.18 992.67 991.29
1014.85 1015.02 1015.39 1015.59 1015.77 1015.68 1015.85 1016.22 1016.41 1016.50 1016.18 1015.83 1015.44 1015.03 1014.65 1014.25 1013.59 1012.97 1012.44 1011.76 1010.95 1010.07 1009.24 1008.40 1007.53 1006.61 1005.91 1005.40 1004.63 1003.85 1002.94 1001.95 1000.90 1000.11 999.24 998.36 997.63 996.66 995.40 994.29 993.09 991.63 990.49
1015.06 1015.36 1015.80 1016.19 1016.33 1016.49 1016.55 1016.79 1016.86 1016.62 1016.29 1015.88 1015.46 1014.96 1014.47 1013.93 1013.26 1012.87 1012.14 1011.44 1010.74 1009.90 1009.04 1008.09 1007.07 1006.47 1005.87 1005.13 1004.30 1003.41 1002.55 1001.57 1000.88 1000.04 999.01 998.01 996.81 995.62 994.13 992.79 991.49 990.36 989.41
1015.49 1015.92 1016.45 1016.72 1016.69 1016.81 1016.86 1017.03 1016.78 1016.54 1016.05 1015.60 1015.19 1014.77 1014.22 1013.74 1013.07 1012.44 1011.79 1011.15 1010.47 1009.66 1008.72 1007.84 1007.05 1006.19 1005.56 1004.71 1003.89 1002.87 1002.03 1001.38 1000.65 999.86 998.78 997.40 995.87 994.58 993.54 992.37 991.16 989.95 989.05
1015.98 1016.37 1016.73 1016.84 1016.91 1016.92 1016.99 1016.99 1016.70 1016.29 1015.70 1015.31 1015.01 1014.61 1014.13 1013.34 1012.73 1012.16 1011.64 1010.91 1010.17 1009.33 1008.59 1007.72 1006.87 1006.04 1005.09 1004.30 1003.47 1002.63 1001.86 1000.94 1000.07 999.06 997.62 996.45 995.35 994.50 993.56 992.19 991.01 990.19 989.23
1016.27 1016.58 1016.81 1016.88 1016.94 1016.91 1016.77 1016.61 1016.31 1015.90 1015.45 1015.05 1014.77 1014.29 1013.73 1013.06 1012.36 1011.79 1011.35 1010.54 1009.87 1009.40 1008.56 1007.76 1006.95 1005.97 1004.82 1004.01 1003.29 1002.51 1001.63 1000.69 999.69 998.39 997.26 996.33 995.41 994.26 993.15 992.08 991.11 989.98 989.23
1016.62 1016.84 1016.92 1016.96 1016.84 1016.69 1016.46 1016.37 1015.97 1015.61 1015.33 1014.76 1014.44 1014.11 1013.51 1012.91 1012.29 1011.53 1010.49 1010.14 1009.50 1008.93 1008.32 1007.56 1006.68 1005.61 1004.84 1004.02 1003.08 1002.27 1001.38 1000.47 999.58 998.27 997.65 996.76 995.80 994.57 993.30 992.16 991.01 990.03 989.33
Thickness
5739 5744 5745 5746 5748 5750 5750 5749 5750 5748 5748 5743 5735 5731 5728 5726 5724 5721 5718 5715 5711 5707 5703 5700 5695 5691 5687 5686 5683 5678 5672 5671 5665 5658 5660 5660 5660 5660 5658 5656 5654 5652 5649
5731 5733 5734 5735 5736 5736 5737 5739 5741 5742 5743 5739 5739 5734 5728 5724 5721 5718 5715 5712 5709 5705 5701 5698 5695 5691 5685 5681 5678 5673 5668 5666 5658 5652 5642 5649 5656 5659 5657 5653 5648 5646 5643
5720 5720 5721 5723 5725 5727 5728 5730 5730 5732 5733 5734 5731 5727 5722 5717 5712 5709 5708 5706 5704 5701 5698 5695 5691 5687 5681 5679 5674 5667 5661 5657 5652 5646 5639 5634 5640 5638 5647 5648 5645 5641 5639
5713 5714 5713 5713 5715 5716 5719 5721 5722 5723 5723 5722 5719 5713 5708 5704 5704 5703 5702 5701 5699 5697 5694 5691 5686 5682 5677 5673 5669 5664 5658 5651 5650 5641 5640 5638 5633 5628 5629 5636 5632 5628 5631
5705 5704 5703 5705 5706 5708 5709 5710 5712 5713 5712 5711 5707 5701 5697 5694 5694 5692 5690 5689 5689 5688 5686 5683 5681 5676 5670 5666 5662 5657 5651 5647 5644 5642 5637 5631 5627 5624 5617 5618 5629 5617 5620
5697 5696 5696 5697 5697 5698 5699 5700 5700 5698 5697 5696 5693 5689 5685 5683 5681 5679 5676 5675 5675 5674 5672 5670 5669 5667 5664 5659 5656 5651 5647 5644 5639 5634 5632 5626 5622 5621 5609 5609 5614 5615 5618
5691 5689 5687 5687 5687 5686 5686 5688 5687 5685 5683 5681 5678 5675 5671 5668 5665 5662 5659 5658 5657 5656 5655 5653 5653 5652 5651 5648 5645 5642 5640 5636 5632 5630 5624 5620 5619 5617 5613 5608 5612 5609 5612
5684 5683 5682 5677 5675 5675 5674 5674 5674 5672 5671 5668 5665 5662 5659 5655 5651 5648 5644 5641 5639 5639 5639 5637 5635 5634 5634 5634 5632 5630 5628 5627 5626 5625 5622 5616 5614 5610 5605 5604 5599 5599 5600
5679 5677 5675 5670 5669 5668 5666 5664 5662 5659 5657 5652 5649 5646 5643 5639 5634 5631 5628 5625 5623 5623 5622 5620 5618 5618 5616 5616 5615 5616 5616 5618 5618 5618 5614 5610 5610 5607 5604 5600 5596 5592 5590
5674 5670 5667 5665 5663 5661 5658 5654 5649 5644 5639 5636 5634 5631 5627 5622 5618 5615 5611 5608 5606 5604 5603 5602 5600 5599 5599 5598 5597 5598 5599 5599 5599 5598 5596 5596 5595 5596 5597 5596 5595 5589 5583
5667 5663 5658 5656 5654 5651 5644 5639 5634 5630 5626 5623 5618 5614 5611 5606 5603 5598 5594 5591 5589 5586 5584 5583 5582 5581 5580 5579 5577 5578 5579 5578 5579 5579 5577 5579 5579 5578 5579 5582 5584 5580 5577
5661 5655 5650 5645 5641 5634 5631 5626 5621 5616 5609 5605 5600 5596 5593 5588 5584 5579 5576 5573 5571 5568 5565 5563 5561 5560 5558 5556 5556 5556 5557 5555 5555 5555 5556 5557 5557 5557 5557 5558 5563 5567 5569
5651 5644 5639 5632 5625 5620 5614 5608 5603 5597 5592 5588 5582 5579 5575 5570 5565 5561 5558 5553 5550 5547 5544 5541 5539 5537 5536 5536 5534 5532 5532 5532 5536 5537 5536 5538 5538 5539 5541 5543 5545 5550 5555
5641 5633 5624 5616 5606 5601 5597 5591 5585 5579 5574 5569 5563 5560 5554 5548 5544 5540 5536 5532 5529 5527 5524 5520 5517 5516 5516 5514 5512 5510 5512 5513 5514 5514 5514 5516 5519 5521 5524 5526 5529 5533 5536
5625 5618 5609 5596 5589 5586 5580 5572 5566 5560 5555 5549 5543 5537 5530 5525 5518 5514 5509 5506 5503 5500 5497 5496 5495 5493 5492 5494 5488 5488 5494 5496 5499 5496 5495 5498 5500 5501 5504 5507 5516 5517 5521
5611 5601 5591 5581 5574 5567 5559 5551 5543 5538 5533 5526 5520 5511 5504 5497 5491 5487 5483 5480 5476 5475 5474 5473 5471 5472 5474 5472 5470 5469 5470 5469 5469 5476 5479 5480 5483 5484 5488 5493 5496 5501 5507
5594 5585 5575 5567 5559 5550 5542 5532 5525 5518 5510 5502 5493 5485 5479 5472 5465 5459 5454 5451 5450 5448 5449 5449 5447 5447 5451 5451 5450 5451 5451 5450 5450 5451 5454 5464 5467 5466 5470 5476 5482 5487 5493
5577 5566 5554 5547 5541 5532 5524 5515 5508 5498 5489 5478 5468 5458 5450 5444 5440 5436 5432 5431 5429 5427 5428 5429 5430 5428 5429 5429 5429 5429 5430 5432 5433 5435 5436 5440 5445 5445 5442 5451 5465 5474 5481
5559 5549 5541 5532 5520 5513 5506 5497 5484 5471 5461 5451 5441 5433 5426 5423 5419 5416 5413 5410 5409 5409 5409 5410 5411 5409 5411 5408 5404 5403 5407 5411 5414 5417 5417 5415 5422 5428 5425 5427 5440 5457 5471
5543 5532 5522 5512 5502 5493 5482 5468 5455 5443 5432 5425 5418 5411 5406 5402 5400 5397 5395 5393 5389 5391 5394 5392 5390 5391 5390 5384 5380 5377 5380 5386 5391 5397 5399 5400 5399 5407 5410 5409 5420 5434 5451
5520 5511 5499 5486 5475 5465 5453 5440 5427 5417 5411 5406 5401 5396 5391 5386 5384 5382 5378 5376 5376 5375 5373 5373 5372 5370 5364 5358 5355 5353 5352 5356 5362 5370 5378 5382 5383 5388 5396 5402 5410 5422 5434
5502 5491 5474 5459 5447 5436 5425 5413 5404 5399 5393 5389 5384 5381 5378 5374 5371 5366 5364 5361 5357 5355 5354 5353 5353 5349 5341 5335 5332 5331 5331 5333 5333 5342 5352 5360 5369 5378 5391 5402 5411 5420 5427
5479 5464 5446 5431 5420 5410 5401 5393 5387 5382 5380 5376 5372 5367 5365 5360 5356 5353 5349 5344 5339 5334 5333 5331 5327 5325 5319 5314 5310 5312 5313 5313 5313 5321 5331 5344 5359 5373 5382 5390 5400 5411 5417
5452 5436 5422 5410 5402 5394 5384 5375 5372 5369 5368 5363 5357 5353 5349 5348 5343 5336 5328 5324 5318 5315 5310 5307 5305 5302 5301 5294 5293 5295 5296 5298 5302 5310 5324 5336 5350 5359 5367 5379 5390 5396 5406
5430 5416 5403 5393 5386 5378 5371 5364 5361 5358 5354 5348 5342 5337 5333 5329 5325 5320 5309 5305 5300 5287 5283 5280 5278 5277 5281 5280 5280 5281 5284 5288 5293 5304 5314 5325 5336 5349 5360 5370 5378 5390 5397
5408 5397 5387 5379 5373 5367 5360 5353 5349 5342 5335 5334 5326 5318 5313 5307 5301 5296 5298 5290 5279 5271 5264 5260 5258 5264 5263 5263 5268 5273 5275 5278 5283 5294 5300 5311 5324 5339 5352 5362 5372 5382 5390